COSMOS 1275 DEB, 12719

Orbit data source: Space-Track

COSMOS 1275 DEB, 12719 is space debris in LEO originally from a launch on Thu, 04 Jun 1981 UTC launched from the Plesetsk Missile And Space Complex (PKMTR). Debris objects in space refer to the collection of defunct objects orbiting the Earth. Examples of debris include non-operational satellites, rocket bodies, and fragments generated from explosions, collisions, or faulty payload assembly.

Loading next visibility...
Identifier
12719, 1981-053BL
Orbit
LEO
Country
Flag of CISCIS
Related business
Manufacturer
Unknown
Mission
Spacecraft
Bus & Motor
Unknown
Mass
Unknown
Launch date (UTC)
1981-06-04 (45 years ago)
Launch vehicle
Unknown
Launch site
Plesetsk Missile And Space Complex (PKMTR)
Object type
Payload
Rocket body
Debris
Shape & HBR
Unknown shape, 0.2 m
Radar Cross Section
Medium (>0.1 m² and <1 m²)

Expand to show TLE details & history
Last TLE update: 10 hours ago

TLE from 10 hours ago
0 COSMOS 1275 DEB
1 12719U 81053BL  25351.59570078  .00000641  00000-0  47007-3 0  9996
2 12719  82.9594 178.9832 0020971 155.0844 266.1693 13.94268815244261
Epoch: 2025-12-17T14:17Z
TLE epoch observation values (Epoch: 2025-12-17T14:17:48.547Z)
Latitude
60.33716°
Longitude
-109.47473°
Altitude
925.046 km
Speed
7.395 km/s
True Right ascension
12h 45m 45s
True Declination
60° 11' 33"
Sunlit
Object was in daylight at epoch
Visualization orbit readout
Latitude
Unknown
Longitude
Unknown
Altitude
Unknown
Speed
Unknown
Apparent Right ascension
Unknown
Apparent Declination
Unknown
Sunlit
N/A
Visualization observer readout
Local Sidereal Time
23:05:14
Azimuth
Unknown
Elevation
Unknown
Doppler factor
Unknown
Orbital elements
Apogee altitude
926.116 km
Perigee altitude
895.545 km
Semi-major axis
7,288.968 km
Eccentricity
0.0021
Inclination
82.9594°
RAAN
178.9832°
Arg. of periapsis
155.0844°
True anomaly
265.92957°
Mean anomaly
266.1693°
Eccentric anomaly
266.04943°
Mean motion
3.48774 °/min
Orbital period
103.22 mins
BSTAR
0.00047007
Loading maneuver chart data...
Computing Atmospheric mass density...
Loading historical data...
Loading historical data...
Loading historical data...
Loading historical data...
Loading historical data...
Loading historical data...
Loading historical data...

Documentation

Showing up to 5 results
|